Hourly Weather Holovky

Today, 16 April, Friday

Time Temperature Precipitation Wind Pressure Humidity
00:00 +8°C° 0.3 mm 3 mps 750 mmHg 89%
01:00 +8°C° 0.3 mm 3 mps 750 mmHg 89%
02:00 +8°C° 0 mm 3 mps 750 mmHg 90%
03:00 +8°C° 0.1 mm 3 mps 750 mmHg 91%
04:00 +8°C° 0.1 mm 3 mps 750 mmHg 92%
05:00 +6°C° 0.1 mm 4 mps 750 mmHg 93%
06:00 +7°C° 0.1 mm 4 mps 751 mmHg 90%
07:00 +7°C° 0.1 mm 4 mps 751 mmHg 88%
08:00 +8°C° 0 mm 5 mps 751 mmHg 86%
09:00 +8°C° 0.1 mm 5 mps 751 mmHg 83%
10:00 +8°C° 0.1 mm 5 mps 752 mmHg 80%
11:00 +9°C° 0.1 mm 5 mps 752 mmHg 78%
12:00 +9°C° 0.2 mm 5 mps 752 mmHg 75%
13:00 +9°C° 0.2 mm 6 mps 752 mmHg 72%
14:00 +10°C° 0.2 mm 6 mps 752 mmHg 69%
15:00 +10°C° 0.2 mm 5 mps 752 mmHg 68%
16:00 +11°C° 0.2 mm 4 mps 752 mmHg 66%
17:00 +11°C° 0.2 mm 4 mps 752 mmHg 65%
18:00 +9°C° 1.1 mm 3 mps 752 mmHg 72%
19:00 +8°C° 1.1 mm 3 mps 753 mmHg 79%
20:00 +7°C° 1.1 mm 3 mps 753 mmHg 87%
21:00 +6°C° 0 mm 2 mps 753 mmHg 87%
22:00 +6°C° 0 mm 2 mps 753 mmHg 87%
23:00 +5°C° 0 mm 2 mps 753 mmHg 87%

Tomorrow, 17 April, Saturday

Time Temperature Precipitation Wind Pressure Humidity
00:00 +5°C° 0 mm 2 mps 753 mmHg 87%
01:00 +5°C° 0 mm 2 mps 754 mmHg 87%
02:00 +4°C° 0 mm 2 mps 754 mmHg 86%
03:00 +3°C° 0.1 mm 3 mps 754 mmHg 89%
04:00 +3°C° 0.1 mm 3 mps 754 mmHg 91%
05:00 +3°C° 0.1 mm 3 mps 754 mmHg 93%
06:00 +4°C° 0.1 mm 3 mps 754 mmHg 91%
07:00 +4°C° 0.1 mm 3 mps 755 mmHg 90%
08:00 +4°C° 0.1 mm 3 mps 755 mmHg 88%
09:00 +5°C° 0.1 mm 3 mps 755 mmHg 86%
10:00 +5°C° 0.1 mm 3 mps 755 mmHg 84%
11:00 +5°C° 0.1 mm 3 mps 756 mmHg 82%
12:00 +6°C° 0 mm 4 mps 756 mmHg 82%
13:00 +6°C° 0 mm 4 mps 756 mmHg 83%
14:00 +6°C° 0 mm 4 mps 756 mmHg 83%
15:00 +6°C° 0 mm 4 mps 756 mmHg 81%
16:00 +7°C° 0 mm 3 mps 756 mmHg 79%
17:00 +7°C° 0 mm 3 mps 756 mmHg 77%
18:00 +7°C° 0 mm 2 mps 756 mmHg 79%
19:00 +7°C° 0 mm 2 mps 756 mmHg 82%
20:00 +6°C° 0 mm 2 mps 756 mmHg 84%
21:00 +6°C° 0 mm 2 mps 756 mmHg 84%
22:00 +6°C° 0 mm 2 mps 756 mmHg 85%
23:00 +6°C° 0 mm 2 mps 756 mmHg 86%

Day after tomorrow, 18 April, Sunday

Time Temperature Precipitation Wind Pressure Humidity
00:00 +6°C° 0 mm 2 mps 756 mmHg 87%
01:00 +5°C° 0 mm 2 mps 756 mmHg 87%
02:00 +5°C° 0 mm 2 mps 756 mmHg 88%
03:00 +5°C° 0 mm 2 mps 756 mmHg 87%
04:00 +5°C° 0 mm 2 mps 756 mmHg 86%
05:00 +5°C° 0 mm 2 mps 755 mmHg 85%
06:00 +6°C° 0 mm 2 mps 755 mmHg 83%
07:00 +7°C° 0 mm 2 mps 755 mmHg 80%
08:00 +7°C° 0 mm 2 mps 755 mmHg 78%
09:00 +9°C° 0 mm 3 mps 755 mmHg 71%
10:00 +10°C° 0 mm 4 mps 755 mmHg 65%
11:00 +12°C° 0 mm 4 mps 755 mmHg 59%
12:00 +12°C° 0 mm 4 mps 755 mmHg 55%
13:00 +13°C° 0 mm 4 mps 754 mmHg 51%
14:00 +14°C° 0 mm 4 mps 754 mmHg 47%
15:00 +14°C° 0 mm 4 mps 754 mmHg 49%
16:00 +14°C° 0 mm 3 mps 754 mmHg 51%
17:00 +14°C° 0 mm 2 mps 754 mmHg 53%
18:00 +14°C° 0 mm 2 mps 754 mmHg 55%
19:00 +13°C° 0 mm 2 mps 754 mmHg 57%
20:00 +12°C° 0 mm 2 mps 754 mmHg 58%
21:00 +12°C° 0 mm 2 mps 754 mmHg 60%
22:00 +10°C° 0 mm 2 mps 754 mmHg 62%
23:00 +10°C° 0 mm 2 mps 754 mmHg 64%

19 April, Monday

Time Temperature Precipitation Wind Pressure Humidity
00:00 +9°C° 0 mm 2 mps 754 mmHg 65%
01:00 +10°C° 0 mm 1 mps 753 mmHg 67%
02:00 +9°C° 0 mm 1 mps 753 mmHg 69%
03:00 +9°C° 0 mm 1 mps 753 mmHg 70%
04:00 +9°C° 0 mm 1 mps 753 mmHg 71%
05:00 +9°C° 0 mm 1 mps 753 mmHg 72%
06:00 +10°C° 0 mm 1 mps 753 mmHg 69%
07:00 +10°C° 0 mm 2 mps 753 mmHg 65%
08:00 +12°C° 0 mm 2 mps 753 mmHg 62%
09:00 +12°C° 0.1 mm 3 mps 753 mmHg 61%
10:00 +13°C° 0.1 mm 3 mps 753 mmHg 59%
11:00 +14°C° 0.1 mm 4 mps 752 mmHg 58%
12:00 +13°C° 0.1 mm 4 mps 752 mmHg 64%
13:00 +12°C° 0.1 mm 5 mps 752 mmHg 71%
14:00 +10°C° 0.1 mm 5 mps 752 mmHg 77%
15:00 +9°C° 0 mm 5 mps 751 mmHg 79%
16:00 +10°C° 0 mm 4 mps 751 mmHg 82%
17:00 +10°C° 0 mm 4 mps 750 mmHg 85%
18:00 +8°C° 0 mm 4 mps 750 mmHg 86%
19:00 +8°C° 0 mm 4 mps 749 mmHg 87%
20:00 +8°C° 0 mm 4 mps 749 mmHg 88%
21:00 +9°C° 0 mm 3 mps 748 mmHg 89%
22:00 +9°C° 0 mm 3 mps 748 mmHg 91%
23:00 +9°C° 0 mm 3 mps 747 mmHg 92%

20 April, Tuesday

Time Temperature Precipitation Wind Pressure Humidity
00:00 +9°C° 0.5 mm 3 mps 746 mmHg 94%
01:00 +8°C° 0.5 mm 4 mps 744 mmHg 95%
02:00 +8°C° 0.5 mm 4 mps 743 mmHg 96%
03:00 +8°C° 1.7 mm 4 mps 742 mmHg 97%
04:00 +8°C° 1.7 mm 4 mps 741 mmHg 97%
05:00 +10°C° 1.7 mm 4 mps 740 mmHg 97%
06:00 +10°C° 0.5 mm 4 mps 739 mmHg 97%
07:00 +11°C° 0.5 mm 4 mps 738 mmHg 96%
08:00 +11°C° 0.5 mm 4 mps 738 mmHg 95%
09:00 +12°C° 0.7 mm 5 mps 738 mmHg 91%
10:00 +12°C° 0.7 mm 5 mps 738 mmHg 87%
11:00 +13°C° 0.7 mm 6 mps 738 mmHg 84%
12:00 +13°C° 0.2 mm 6 mps 738 mmHg 79%
13:00 +11°C° 0.2 mm 7 mps 738 mmHg 75%
14:00 +11°C° 0.2 mm 7 mps 738 mmHg 71%
15:00 +10°C° 0.1 mm 6 mps 738 mmHg 73%
16:00 +10°C° 0.1 mm 6 mps 738 mmHg 76%
17:00 +9°C° 0.1 mm 5 mps 739 mmHg 78%
18:00 +9°C° 0 mm 5 mps 739 mmHg 81%
19:00 +8°C° 0 mm 5 mps 740 mmHg 84%
20:00 +8°C° 0 mm 5 mps 741 mmHg 87%
21:00 +8°C° 0.2 mm 5 mps 742 mmHg 87%
22:00 +7°C° 0.2 mm 6 mps 743 mmHg 86%
23:00 +7°C° 0.2 mm 6 mps 744 mmHg 86%

21 April, Wednesday

Time Temperature Precipitation Wind Pressure Humidity
00:00 +7°C° 0 mm 6 mps 745 mmHg 85%
01:00 +7°C° 0 mm 6 mps 746 mmHg 83%
02:00 +5°C° 0 mm 6 mps 747 mmHg 81%
03:00 +6°C° 0 mm 5 mps 747 mmHg 83%
04:00 +5°C° 0 mm 5 mps 748 mmHg 84%
05:00 +3°C° 0 mm 5 mps 749 mmHg 86%
06:00 +6°C° 0 mm 5 mps 749 mmHg 80%
07:00 +7°C° 0 mm 5 mps 750 mmHg 75%
08:00 +9°C° 0 mm 6 mps 750 mmHg 69%
09:00 +10°C° 0 mm 6 mps 751 mmHg 64%
10:00 +11°C° 0 mm 7 mps 751 mmHg 58%
11:00 +14°C° 0 mm 7 mps 751 mmHg 52%
12:00 +14°C° 0.1 mm 7 mps 752 mmHg 50%
13:00 +15°C° 0.1 mm 7 mps 752 mmHg 49%
14:00 +15°C° 0.1 mm 6 mps 752 mmHg 47%
15:00 +15°C° 0.1 mm 6 mps 752 mmHg 51%
16:00 +14°C° 0.1 mm 5 mps 753 mmHg 55%
17:00 +14°C° 0.1 mm 4 mps 753 mmHg 59%
18:00 +12°C° 0.3 mm 3 mps 754 mmHg 67%
19:00 +12°C° 0.3 mm 2 mps 754 mmHg 74%
20:00 +10°C° 0.3 mm 2 mps 755 mmHg 82%
21:00 +10°C° 0.2 mm 2 mps 755 mmHg 84%
22:00 +10°C° 0.2 mm 2 mps 755 mmHg 87%
23:00 +10°C° 0.2 mm 2 mps 755 mmHg 89%
Show more